Tracking 22994 objects as of 8-May-2021
HD Live streaming from Space Station
objects crossing your sky now

TANSUO 1

Track TANSUO 1 now!
10-day predictions
TANSUO 1 is classified as:


NORAD ID: 28220
Int'l Code: 2004-012A
Perigee: 563.4 km
Apogee: 582.6 km
Inclination: 97.9 °
Period: 96.0 minutes
Semi major axis: 6944 km
RCS: 1.6951 m2 (large)
Launch date: April 18, 2004
Source: People's Republic of China (PRC)
Launch site: Xichang Space Center, China (XSC)
aabbcc
Your satellite tracking list
Your tracking list is empty




NASA's NSSDC Master Catalog

Two Line Element Set (TLE):
1 28220U 04012A   21127.91910585 -.00000271  00000-0 -16576-4 0  9993
2 28220  97.8871 106.6894 0013778 243.4845 116.4965 15.00334029929375
Source of the keplerian elements: AFSPC